Location: Chefe Valiua
(16.5342°S, 37.2214°E)
Time: 14:32:05
(UTC+00:00)

Envisat - Pass Details

Date: 14 June 2021
Orbit: 764 x 766 km, 98.1° (Epoch: 25 July)

Event Time Altitude Azimuth Distance (km) Brightness Sun altitude
Rises 01:26:37 0° 44° (NE) 3,215 7.0 -34.6°
Reaches altitude 10° 01:29:28 10° 61° (ENE) 2,296 6.2 -34.0°
Maximum altitude 01:33:05 20° 107° (ESE) 1,717 5.3 -33.2°
Enters shadow 01:36:19 12° 149° (SSE) 2,200 5.5 -32.4°
